This demonstration page uses our WeatherBlox Daily Observations layout. Learn more.

Left ArrowRight Arrow

Hourly Observations for June 22, 2015

Temp ( °F °C ) Dew Point ( °F °C ) Humidity (%) Winds ( mph kmh ) Pressure ( in mb ) Visibility ( mi km ) Precip ( " mm )
12:54 am 00:54 Clear 78 25.6 73 22.8 85 85 SSE 10 17 29.74 1007 10 16.0934 N/A
1:54 am 01:54 Clear 80 26.7 72 22.2 76 76 S 16 26 29.71 1006 10 16.0934 N/A
2:54 am 02:54 Clear 79 26.1 71 21.7 77 77 S 18 30 29.69 1006 10 16.0934 N/A
3:54 am 03:54 Clear 78 25.6 72 22.2 82 82 S 20 31 29.65 1004 10 16.0934 N/A
4:54 am 04:54 Clear 78 25.6 72 22.2 82 82 S 16 26 29.66 1004 10 16.0934 N/A
5:54 am 05:54 Clear 78 25.6 72 22.2 82 82 S 17 28 29.66 1004 10 16.0934 N/A
6:54 am 06:54 Sunny 78 25.6 72 22.2 82 82 S 17 28 29.65 1004 9 14.48406 N/A
7:54 am 07:54 Sunny 79 26.1 72 22.2 79 79 SSW 22 35 29.63 1004 9 14.48406 N/A
8:30 am 08:30 Mostly Sunny 81 27.2 71 21.7 72 72 W 9 15 29.68 1005 9 14.48406 N/A
8:54 am 08:54 Mostly Sunny 81 27.2 71 21.7 72 72 WSW 10 17 29.69 1005 9 14.48406 N/A
9:54 am 09:54 Sunny 84 28.9 72 22.2 67 67 SW 8 13 29.69 1006 9 14.48406 N/A
10:54 am 10:54 Sunny 88 31.1 71 21.7 57 57 WSW 14 22 29.7 1006 10 16.0934 N/A
11:54 am 11:54 Mostly Sunny 90 32.2 71 21.7 54 54 W 13 20 29.71 1006 10 16.0934 N/A
12:54 pm 12:54 Mostly Cloudy 91 32.8 71 21.7 52 52 WNW 13 20 29.73 1007 10 16.0934 N/A
1:54 pm 13:54 Mostly Cloudy 91 32.8 72 22.2 54 54 N 13 20 29.75 1007 10 16.0934 N/A
2:54 pm 14:54 Mostly Cloudy 90 32.2 73 22.8 58 58 N 18 30 29.77 1008 10 16.0934 N/A
3:54 pm 15:54 Mostly Cloudy 91 32.8 69 20.6 49 49 N 20 31 29.8 1009 10 16.0934 N/A
4:54 pm 16:54 Partly Cloudy 90 32.2 67 19.4 47 47 N 23 37 29.82 1010 10 16.0934 N/A
5:54 pm 17:54 Sunny 87 30.6 65 18.3 48 48 N 23 37 29.84 1011 10 16.0934 N/A
6:54 pm 18:54 Sunny 85 29.4 62 16.7 46 46 N 17 28 29.86 1011 10 16.0934 N/A
7:54 pm 19:54 Sunny 82 27.8 59 15 46 46 N 16 26 29.89 1012 10 16.0934 N/A
8:54 pm 20:54 Sunny 77 25 53 11.7 43 43 N 13 20 29.92 1013 10 16.0934 N/A
9:54 pm 21:54 Clear 68 20 56 13.3 65 65 N 9 15 29.95 1014 10 16.0934 N/A
10:54 pm 22:54 Clear 67 19.4 54 12.2 63 63 N 8 13 29.98 1015 10 16.0934 N/A
11:54 pm 23:54 Clear 65 18.3 53 11.7 66 66 N 7 11 30.02 1017 10 16.0934 N/A

Powered by AerisWeather